Weather History for Ouarzazate, Morocco

Change the Weather History Date:

Wednesday, October 9, 2013

  Actual Average Record
Temperature  
Mean Temperature 71 °F -  
Max Temperature 89 °F 77 °F - ()
Min Temperature 53 °F 51 °F - ()
Cooling Degree Days 6    
Growing Degree Days 21 (Base 50)    
Moisture  
Dew Point 21 °F    
Average Humidity 14    
Maximum Humidity 27    
Minimum Humidity 4    
Precipitation  
Precipitation 0.00 in 0.02 in - ()
Sea Level Pressure  
Sea Level Pressure 30.03 in    
Wind  
Wind Speed 2 mph ()    
Max Wind Speed 13 mph    
Max Gust Speed -    
Visibility 10.1 miles    
Events      
T = Trace of Precipitation, MM = Missing Value Source: Averaged Metar Reports

Daily Weather History Graph

Daily Weather History Graph

Search for Another Location

Airport:

Trip Planner

Search our weather history database for the weather conditions in past years. The results will help you decide how hot, cold, wet, or windy it might be!

Date:

Astronomy

Oct. 09, 2013 Rise Set
Actual Time 7:26 AM WEST 7:02 PM WEST
Civil Twilight 7:02 AM WEST 7:27 PM WEST
Nautical Twilight 6:34 AM WEST 7:55 PM WEST
Astronomical Twilight 6:06 AM WEST 8:23 PM WEST
Moon 11:52 AM WEST (10/9) 10:39 PM WEST (10/9)
Length of Visible Light 12h 25m
Length of Day
11h 36m
Waxing Crescent, 23% of the Moon is Illuminated
Oct 9
Waxing Crescent
Oct 12
First Quarter
Oct 19
Full
Oct 27
Last Quarter
Nov 3
New

Hourly Weather History & Observations

Time (WEST) Temp. Dew Point Humidity Pressure Visibility Wind Dir Wind Speed Gust Speed Precip Events Conditions
12:00 AM 69.8 °F 15.8 °F 13% 30.04 in - Variable 1.2 mph - N/A   Clear
1:00 AM 69 °F 18 °F 6%  in 12 mi Calm Calm - -  
1:00 AM 68.0 °F 17.6 °F 15% 30.04 in - Calm Calm - N/A   Clear
2:00 AM 69.8 °F 19.4 °F 15% 30.04 in - Calm Calm - N/A   Clear
3:00 AM 60.8 °F 26.6 °F 27% 30.04 in - Calm Calm - N/A   Clear
4:00 AM 63 °F 24 °F 12%  in 12 mi Calm Calm - -  
4:00 AM 62.6 °F 23.0 °F 22% 30.04 in - Calm Calm - N/A   Clear
5:00 AM 59.0 °F 23.0 °F 25% 30.04 in - North - - N/A   Clear
6:00 AM 60.8 °F 21.2 °F 22% 30.04 in - Variable 1.2 mph - N/A   Clear
7:00 AM 57 °F 25 °F 18%  in 12 mi SSE 2.3 mph - -  
7:00 AM 59.0 °F 24.8 °F 27% 30.04 in - Variable 1.2 mph - N/A   Clear
8:00 AM 53.6 °F 19.4 °F 26% 30.06 in - NW 2.3 mph - N/A   Clear
9:00 AM 62.6 °F 24.8 °F 24% 30.06 in - Calm Calm - N/A   Clear
10:00 AM 68 °F 28 °F 12%  in 12 mi NW 1.2 mph - -  
10:00 AM 68.0 °F 26.6 °F 21% 30.09 in - Variable 1.2 mph - N/A   Clear
11:00 AM 73.4 °F 30.2 °F 20% 30.09 in - Variable 2.3 mph - N/A   Clear
12:00 PM 80.6 °F 28.4 °F 15% 30.09 in - Calm Calm - N/A   Clear
1:00 PM 83 °F 21 °F 4%  in 12 mi ESE 2.3 mph - -  
1:00 PM 82.4 °F 21.2 °F 10% 30.06 in - Variable 2.3 mph - N/A   Clear
2:00 PM 86.0 °F 17.6 °F 8% 30.04 in - Variable 3.5 mph - N/A   Clear
3:00 PM 87.8 °F 15.8 °F 7% 30.01 in - Variable 4.6 mph - N/A   Clear
4:00 PM 89 °F 17 °F 4%  in 12 mi ESE 12.7 mph - -   Scattered Clouds
4:00 PM 89.6 °F 17.6 °F 7% 29.98 in 6.2 mi ESE 12.7 mph - N/A   Partly Cloudy
5:00 PM 87.8 °F 14.0 °F 6% 29.98 in 6.2 mi SE 6.9 mph - N/A   Partly Cloudy
6:00 PM 86.0 °F 17.6 °F 8% 29.98 in 6.2 mi SSE 8.1 mph - N/A   Partly Cloudy
7:00 PM 85 °F 20 °F 4%  in 12 mi SE 10.4 mph - -   Scattered Clouds
7:00 PM 84.2 °F 19.4 °F 9% 29.98 in 6.2 mi SE 10.4 mph - N/A   Partly Cloudy
8:00 PM 82.4 °F 19.4 °F 10% 29.98 in - SSE 5.8 mph - N/A   Clear
9:00 PM 80.6 °F 23.0 °F 12% 30.01 in - Calm Calm - N/A   Clear
10:00 PM 74 °F 23 °F 7%  in 12 mi ENE 1.2 mph - -  
10:00 PM 73.4 °F 23.0 °F 15% 30.01 in - Variable 1.2 mph - N/A   Clear
11:00 PM 71.6 °F 21.2 °F 15% 30.04 in - Calm Calm - N/A   Clear